| time (UTC) | temp C | wind direction | speed KPH | gust KPH | rain 1hr cm | rain 24hr cm | rain mn cm | humidity % | barometer mb |
| 20260506003202 | 12 | 201 | 14.5 | 29.0 | 0.00 | 0.00 | 0.00 | 79 | 1006.7 |
| 20260506002203 | 12 | 220 | 8.0 | 24.1 | 0.00 | 0.00 | 0.00 | 79 | 1007.0 |
| 20260506001202 | 12 | 217 | 9.7 | 20.9 | 0.00 | 0.00 | 0.00 | 79 | 1007.0 |
| 20260506000204 | 12 | 212 | 8.0 | 19.3 | 0.00 | 0.00 | 0.00 | 79 | 1006.9 |
| 20260505235202 | 12 | 221 | 9.7 | 40.2 | 0.00 | 0.00 | 0.00 | 79 | 1006.8 |
| 20260505234203 | 11 | 211 | 17.7 | 32.2 | 0.00 | 0.00 | 0.00 | 82 | 1006.2 |
| 20260505233204 | 11 | 248 | 6.4 | 32.2 | 0.00 | 0.00 | 0.00 | 81 | 1005.8 |
| 20260505232202 | 12 | 217 | 9.7 | 32.2 | 0.00 | 0.00 | 0.00 | 80 | 1005.0 |
| 20260505231203 | 12 | 233 | 12.9 | 35.4 | 0.00 | 0.00 | 0.00 | 79 | 1005.0 |
| 20260505230202 | 12 | 201 | 14.5 | 49.9 | 0.00 | 0.00 | 0.00 | 79 | 1004.5 |
| 20260505225203 | 12 | 200 | 20.9 | 38.6 | 0.00 | 0.00 | 0.00 | 78 | 1004.5 |
| 20260505224225 | 12 | 200 | 19.3 | 40.2 | 0.00 | 0.00 | 0.00 | 78 | 1004.2 |
| 20260505223202 | 13 | 192 | 20.9 | 48.3 | 0.00 | 0.00 | 0.00 | 77 | 1004.0 |
| 20260505222203 | 13 | 197 | 25.7 | 54.7 | 0.00 | 0.00 | 0.00 | 76 | 1003.7 |
| 20260505221203 | 13 | 193 | 25.7 | 49.9 | 0.00 | 0.00 | 0.00 | 77 | 1003.9 |
| 20260505220203 | 13 | 197 | 19.3 | 45.1 | 0.00 | 0.00 | 0.00 | 78 | 1004.0 |
| 20260505215204 | 13 | 196 | 19.3 | 54.7 | 0.00 | 0.00 | 0.00 | 78 | 1004.0 |
| 20260505214203 | 13 | 188 | 17.7 | 43.5 | 0.00 | 0.00 | 0.00 | 77 | 1003.9 |
| 20260505213203 | 14 | 195 | 22.5 | 41.8 | 0.00 | 0.00 | 0.00 | 76 | 1004.2 |
| 20260505212203 | 14 | 199 | 22.5 | 51.5 | 0.00 | 0.00 | 0.00 | 75 | 1004.0 |
| 20260505211203 | 15 | 190 | 20.9 | 45.1 | 0.00 | 0.00 | 0.00 | 74 | 1004.0 |
| 20260505210202 | 14 | 181 | 20.9 | 49.9 | 0.00 | 0.00 | 0.00 | 75 | 1004.1 |
| 20260505205203 | 14 | 190 | 22.5 | 54.7 | 0.00 | 0.00 | 0.00 | 74 | 1003.9 |
| 20260505204203 | 15 | 197 | 22.5 | 41.8 | 0.00 | 0.00 | 0.00 | 74 | 1004.0 |
| 20260505203224 | 15 | 191 | 20.9 | 41.8 | 0.00 | 0.00 | 0.00 | 74 | 1004.0 |
| 20260505202203 | 15 | 193 | 24.1 | 46.7 | 0.00 | 0.00 | 0.00 | 74 | 1004.0 |
| 20260505200203 | 15 | 187 | 19.3 | 43.5 | 0.00 | 0.00 | 0.00 | 74 | 1004.4 |
| 20260505195203 | 15 | 211 | 14.5 | 30.6 | 0.00 | 0.00 | 0.00 | 74 | 1004.7 |
| 20260505194203 | 15 | 199 | 12.9 | 30.6 | 0.00 | 0.00 | 0.00 | 73 | 1004.9 |
| 20260505193224 | 15 | 208 | 16.1 | 25.7 | 0.00 | 0.00 | 0.00 | 73 | 1005.1 |
| 20260505192203 | 15 | 210 | 8.0 | 19.3 | 0.00 | 0.00 | 0.00 | 73 | 1005.3 |
| 20260505191204 | 15 | 230 | 8.0 | 27.4 | 0.00 | 0.00 | 0.00 | 73 | 1005.6 |
| 20260505190204 | 15 | 212 | 9.7 | 22.5 | 0.00 | 0.00 | 0.00 | 73 | 1005.5 |
| 20260505185203 | 15 | 213 | 11.3 | 29.0 | 0.00 | 0.00 | 0.00 | 75 | 1005.6 |
| 20260505184203 | 16 | 217 | 9.7 | 30.6 | 0.00 | 0.00 | 0.00 | 72 | 1005.5 |
| 20260505183202 | 15 | 199 | 16.1 | 43.5 | 0.00 | 0.00 | 0.00 | 73 | 1005.6 |
| 20260505182224 | 16 | 198 | 16.1 | 29.0 | 0.00 | 0.00 | 0.00 | 72 | 1005.6 |
| 20260505181202 | 16 | 196 | 19.3 | 35.4 | 0.00 | 0.00 | 0.00 | 71 | 1005.8 |
| 20260505180203 | 15 | 186 | 14.5 | 33.8 | 0.00 | 0.00 | 0.00 | 74 | 1005.9 |
| 20260505175203 | 15 | 188 | 17.7 | 32.2 | 0.00 | 0.00 | 0.00 | 73 | 1006.1 |
| 20260505174202 | 15 | 214 | 9.7 | 27.4 | 0.00 | 0.00 | 0.00 | 74 | 1006.4 |
| 20260505173203 | 16 | 195 | 14.5 | 24.1 | 0.00 | 0.00 | 0.00 | 72 | 1006.5 |
| 20260505172202 | 16 | 204 | 11.3 | 25.7 | 0.00 | 0.00 | 0.00 | 72 | 1006.6 |
| 20260505171203 | 15 | 203 | 17.7 | 33.8 | 0.00 | 0.00 | 0.00 | 73 | 1006.7 |
| 20260505170203 | 15 | 201 | 12.9 | 25.7 | 0.00 | 0.00 | 0.00 | 73 | 1006.8 |
| 20260505165203 | 15 | 201 | 14.5 | 30.6 | 0.00 | 0.00 | 0.00 | 73 | 1006.9 |
| 20260505164203 | 14 | 202 | 16.1 | 37.0 | 0.00 | 0.00 | 0.00 | 74 | 1007.1 |
| 20260505163203 | 15 | 209 | 11.3 | 27.4 | 0.00 | 0.00 | 0.00 | 76 | 1007.2 |
| 20260505162202 | 15 | 211 | 14.5 | 25.7 | 0.00 | 0.00 | 0.00 | 74 | 1007.4 |
| 20260505161203 | 15 | 209 | 11.3 | 25.7 | 0.00 | 0.00 | 0.00 | 76 | 1007.6 |
| 20260505160203 | 14 | 219 | 11.3 | 30.6 | 0.00 | 0.00 | 0.00 | 76 | 1007.8 |
| 20260505153203 | 12 | 232 | 9.7 | 22.5 | 0.00 | 0.00 | 0.00 | 82 | 1008.1 |
| 20260505152203 | 11 | 237 | 14.5 | 27.4 | 0.00 | 0.00 | 0.00 | 83 | 1008.2 |
| 20260505151224 | 11 | 237 | 11.3 | 27.4 | 0.00 | 0.00 | 0.00 | 82 | 1007.9 |
| 20260505150202 | 13 | 221 | 11.3 | 22.5 | 0.00 | 0.00 | 0.00 | 76 | 1007.9 |
| 20260505140204 | 13 | 216 | 9.7 | 27.4 | 0.00 | 0.00 | 0.00 | 80 | 1008.2 |
| 20260505130203 | 12 | 216 | 11.3 | 22.5 | 0.00 | 0.00 | 0.00 | 79 | 1008.2 |
| 20260505124225 | 12 | 201 | 11.3 | 25.7 | 0.00 | 0.00 | 0.00 | 81 | 1007.9 |
| 20260505123202 | 12 | 201 | 12.9 | 27.4 | 0.00 | 0.00 | 0.00 | 81 | 1007.9 |
| 20260505122203 | 11 | 212 | 9.7 | 25.7 | 0.00 | 0.00 | 0.00 | 81 | 1008.0 |
| 20260505121202 | 11 | 228 | 6.4 | 24.1 | 0.00 | 0.00 | 0.00 | 82 | 1008.1 |
| 20260505120203 | 11 | 204 | 11.3 | 25.7 | 0.00 | 0.00 | 0.00 | 83 | 1008.3 |
| 20260505115202 | 10 | 224 | 6.4 | 24.1 | 0.00 | 0.00 | 0.00 | 85 | 1008.2 |
| 20260505114203 | 10 | 208 | 8.0 | 19.3 | 0.00 | 0.00 | 0.00 | 85 | 1008.3 |
| 20260505113203 | 10 | 200 | 8.0 | 20.9 | 0.00 | 0.00 | 0.00 | 86 | 1008.3 |
| 20260505112203 | 10 | 208 | 8.0 | 24.1 | 0.00 | 0.00 | 0.00 | 87 | 1008.4 |
| 20260505111203 | 9 | 206 | 8.0 | 17.7 | 0.00 | 0.00 | 0.00 | 88 | 1008.3 |
| 20260505110202 | 8 | 207 | 4.8 | 20.9 | 0.00 | 0.00 | 0.00 | 88 | 1008.2 |
| 20260505102203 | 8 | 214 | 6.4 | 12.9 | 0.00 | 0.00 | 0.00 | 89 | 1007.9 |
| 20260505101203 | 8 | 210 | 6.4 | 16.1 | 0.00 | 0.00 | 0.00 | 89 | 1007.9 |
| 20260505100245 | 8 | 239 | 4.8 | 16.1 | 0.00 | 0.00 | 0.00 | 90 | 1007.9 |
| 20260505095202 | 7 | 247 | 3.2 | 14.5 | 0.00 | 0.00 | 0.00 | 90 | 1007.9 |
| 20260505094203 | 7 | 256 | 6.4 | 14.5 | 0.00 | 0.00 | 0.00 | 90 | 1007.9 |
| 20260505093224 | 7 | 231 | 4.8 | 14.5 | 0.00 | 0.00 | 0.00 | 89 | 1007.9 |
| 20260505092203 | 7 | 230 | 4.8 | 14.5 | 0.00 | 0.00 | 0.00 | 89 | 1007.8 |
| 20260505091203 | 7 | 257 | 8.0 | 12.9 | 0.00 | 0.00 | 0.00 | 89 | 1007.8 |
| 20260505090203 | 8 | 243 | 4.8 | 16.1 | 0.00 | 0.00 | 0.00 | 89 | 1007.9 |
| 20260505085203 | 8 | 230 | 4.8 | 11.3 | 0.00 | 0.00 | 0.00 | 88 | 1008.0 |
| 20260505084202 | 8 | 208 | 4.8 | 12.9 | 0.00 | 0.00 | 0.00 | 88 | 1008.0 |
| 20260505083203 | 8 | 205 | 4.8 | 11.3 | 0.00 | 0.00 | 0.00 | 87 | 1008.0 |
| 20260505082202 | 8 | 208 | 4.8 | 14.5 | 0.00 | 0.00 | 0.00 | 87 | 1008.0 |
| 20260505081203 | 8 | 244 | 6.4 | 14.5 | 0.00 | 0.00 | 0.00 | 87 | 1008.0 |
| 20260505080203 | 8 | 206 | 3.2 | 9.7 | 0.00 | 0.00 | 0.00 | 87 | 1008.0 |
| 20260505075203 | 8 | 256 | 4.8 | 12.9 | 0.00 | 0.00 | 0.00 | 87 | 1008.0 |
| 20260505074203 | 8 | 237 | 6.4 | 20.9 | 0.00 | 0.00 | 0.00 | 86 | 1007.9 |
| 20260505073203 | 8 | 252 | 4.8 | 14.5 | 0.00 | 0.00 | 0.00 | 86 | 1007.9 |
| 20260505072203 | 8 | 231 | 6.4 | 16.1 | 0.00 | 0.00 | 0.00 | 86 | 1007.8 |
| 20260505071202 | 8 | 231 | 3.2 | 17.7 | 0.00 | 0.00 | 0.00 | 85 | 1007.8 |
| 20260505070203 | 8 | 201 | 6.4 | 22.5 | 0.00 | 0.00 | 0.00 | 85 | 1007.8 |
| 20260505065203 | 8 | 224 | 4.8 | 12.9 | 0.00 | 0.00 | 0.00 | 84 | 1007.7 |
| 20260505064203 | 8 | 248 | 4.8 | 25.7 | 0.00 | 0.00 | 0.00 | 83 | 1007.8 |
| 20260505063203 | 9 | 205 | 6.4 | 16.1 | 0.00 | 0.00 | 0.00 | 83 | 1007.8 |
| 20260505062203 | 9 | 218 | 6.4 | 16.1 | 0.00 | 0.00 | 0.00 | 83 | 1007.7 |
| 20260505061203 | 9 | 231 | 9.7 | 16.1 | 0.00 | 0.00 | 0.00 | 83 | 1007.7 |
| 20260505060204 | 9 | 207 | 4.8 | 17.7 | 0.00 | 0.00 | 0.00 | 82 | 1007.8 |
| 20260505055202 | 9 | 209 | 4.8 | 17.7 | 0.00 | 0.00 | 0.00 | 82 | 1007.8 |
| 20260505054204 | 9 | 224 | 8.0 | 17.7 | 0.00 | 0.00 | 0.00 | 81 | 1007.8 |
| 20260505053203 | 9 | 211 | 4.8 | 16.1 | 0.00 | 0.00 | 0.00 | 81 | 1007.8 |
| 20260505052202 | 10 | 211 | 9.7 | 19.3 | 0.00 | 0.00 | 0.00 | 80 | 1007.7 |
| 20260505051203 | 9 | 227 | 8.0 | 17.7 | 0.00 | 0.00 | 0.00 | 80 | 1007.7 |
| 20260505050202 | 10 | 237 | 9.7 | 16.1 | 0.00 | 0.00 | 0.00 | 80 | 1007.6 |
| 20260505041202 | 10 | 209 | 4.8 | 16.1 | 0.00 | 0.00 | 0.00 | 77 | 1007.2 |
| 20260505040203 | 10 | 227 | 6.4 | 17.7 | 0.00 | 0.00 | 0.00 | 76 | 1007.3 |
| 20260505035223 | 11 | 197 | 6.4 | 24.1 | 0.00 | 0.00 | 0.00 | 76 | 1007.1 |
| 20260505034203 | 10 | 221 | 9.7 | 20.9 | 0.00 | 0.00 | 0.00 | 77 | 1007.0 |
| 20260505033203 | 10 | 233 | 8.0 | 22.5 | 0.00 | 0.00 | 0.00 | 77 | 1007.0 |
| 20260505032203 | 10 | 217 | 9.7 | 19.3 | 0.00 | 0.00 | 0.00 | 77 | 1006.9 |
| 20260505031224 | 11 | 209 | 4.8 | 19.3 | 0.00 | 0.00 | 0.00 | 76 | 1007.0 |
| 20260505030203 | 11 | 208 | 8.0 | 19.3 | 0.00 | 0.00 | 0.00 | 76 | 1006.9 |
| 20260505025203 | 11 | 248 | 8.0 | 19.3 | 0.00 | 0.00 | 0.00 | 76 | 1007.0 |
| 20260505024202 | 11 | 236 | 6.4 | 17.7 | 0.00 | 0.00 | 0.00 | 76 | 1006.9 |
| 20260505023225 | 11 | 221 | 8.0 | 20.9 | 0.00 | 0.00 | 0.00 | 76 | 1006.8 |
| 20260505022203 | 10 | 252 | 9.7 | 20.9 | 0.00 | 0.00 | 0.00 | 77 | 1006.7 |
| 20260505021202 | 10 | 242 | 9.7 | 24.1 | 0.00 | 0.00 | 0.00 | 78 | 1006.7 |
| 20260505020245 | 10 | 240 | 8.0 | 22.5 | 0.00 | 0.00 | 0.00 | 79 | 1006.7 |
| 20260505015203 | 10 | 230 | 8.0 | 24.1 | 0.00 | 0.00 | 0.00 | 79 | 1006.6 |
| 20260505014202 | 10 | 237 | 8.0 | 22.5 | 0.00 | 0.00 | 0.00 | 79 | 1006.6 |
| 20260505013203 | 10 | 238 | 9.7 | 24.1 | 0.00 | 0.00 | 0.00 | 80 | 1006.4 |
| 20260505012203 | 10 | 231 | 6.4 | 22.5 | 0.00 | 0.00 | 0.00 | 79 | 1006.3 |
| 20260505011203 | 10 | 239 | 11.3 | 20.9 | 0.00 | 0.00 | 0.00 | 80 | 1006.2 |
| 20260505010203 | 10 | 244 | 12.9 | 27.4 | 0.00 | 0.00 | 0.00 | 79 | 1006.1 |
| 20260505005224 | 10 | 241 | 8.0 | 24.1 | 0.00 | 0.00 | 0.00 | 79 | 1006.1 |
| 20260505004225 | 10 | 238 | 9.7 | 19.3 | 0.00 | 0.00 | 0.00 | 78 | 1005.9 |